Find Starlink 1922

NORAD ID: 46753 Int'l Des: 2020-074 Owner: SPXS Country: US Constellation: starlink operational
LEOCIRCULAR

Live Position

Loading 3D Globe...

About Starlink 1922

Description loading...

Upcoming Passes

Passes for default location (London). Set your location on the main map for personalized predictions.

Altitude History

Loading altitude history...

Two-Line Element Set

1 46753U 20074Q 26123.33334491 .00083350 00000-0 50190-3 0 9999
2 46753 53.0436 13.4487 0006240 157.4188 358.7151 15.76988834 5881
Epoch: May 3, 2026 • Age: 3 hours

Current Status

Altitude 344.6 km
Velocity 7.70 km/s
Sub-Earth Point -27.06°S, 175.46°W
Launch Date Oct 24, 2020
Age 5.5 years
Type internet

Technical Details

Classification Payload
Mass 260.00 kg
Dry Mass 248.00 kg
Total Mass 260.00 kg
Length 0.20 m
Diameter 2.80 m
Span 9.00 m
Shape Box + pan
Manufacturer SPXS
Bus Type Starlink
Phase Status In Orbit
Owner/State SPXS/US

Most Searched